EDT,Max TemperatureF,Mean TemperatureF,Min TemperatureF,Max Dew PointF,MeanDew PointF,Min DewpointF,Max Humidity, Mean Humidity, Min Humidity, Max Sea Level PressureIn, Mean Sea Level PressureIn, Min Sea Level PressureIn, Max VisibilityMiles, Mean VisibilityMiles, Min VisibilityMiles, Max Wind SpeedMPH, Mean Wind SpeedMPH, Max Gust SpeedMPH,PrecipitationIn, CloudCover, Events, WindDirDegrees
2012-10-1,77,72,67,73,69,66,100,92,82,29.86,29.81,29.77,9,6,2,8,3,13,0.20,8,Rain,71
2012-10-2,87,81,74,75,73,65,100,86,51,29.98,29.82,29.76,10,8,2,16,3,23,0.14,6,Rain,201
2012-10-3,82,77,72,72,69,63,93,79,58,30.21,30.08,29.99,10,10,8,8,1,10,T,3,,277
2012-10-4,82,75,67,70,67,62,97,87,54,30.28,30.24,30.17,10,7,1,7,1,10,0.28,5,Rain,249
2012-10-5,81,73,64,66,63,61,100,80,54,30.19,30.12,30.04,10,8,4,5,1,8,0.00,0,,103
2012-10-6,87,74,61,65,61,57,100,74,36,30.04,29.97,29.88,10,7,2,12,2,23,0.00,0,,230
2012-10-7,82,71,59,65,61,52,100,77,55,30.11,30.01,29.94,10,9,3,9,3,18,0.00,3,,37
2012-10-8,60,57,53,54,51,48,93,82,67,30.17,30.13,30.08,10,8,1,9,3,15,0.32,8,Rain,62
2012-10-9,57,53,48,50,48,47,93,83,72,30.20,30.15,30.12,10,9,5,8,2,12,0.00,7,,335
2012-10-10,77,61,45,56,50,44,93,73,43,30.15,30.11,30.04,10,9,7,16,4,24,0.00,2,,276
2012-10-11,73,61,49,53,48,42,96,70,35,30.31,30.24,30.15,10,10,8,10,1,16,0.00,0,,77
2012-10-12,81,66,51,56,52,49,96,69,36,30.29,30.22,30.16,10,9,7,7,1,10,0.00,0,,45
2012-10-13,75,65,54,55,50,47,84,65,41,30.44,30.35,30.29,10,10,10,9,3,15,0.00,0,,56
2012-10-14,81,67,53,65,57,50,93,72,49,30.32,30.19,30.05,10,10,10,10,1,14,0.01,3,,141
2012-10-15,81,72,63,67,61,44,93,70,43,30.04,29.90,29.77,10,10,10,16,5,21,T,4,,265
2012-10-16,74,61,48,50,44,37,86,57,27,30.00,29.93,29.89,10,10,10,8,1,14,0.00,0,,32
2012-10-17,75,63,51,51,48,42,89,68,33,30.03,29.96,29.91,10,10,9,9,2,13,0.00,0,,150
2012-10-18,82,69,55,64,58,52,93,76,51,29.91,29.85,29.78,10,10,9,10,2,14,T,4,,188
2012-10-19,78,65,51,65,52,30,93,69,18,29.85,29.80,29.75,10,8,1,15,4,22,0.35,2,Rain,245
2012-10-20,76,62,48,51,45,40,93,60,29,29.97,29.87,29.83,10,10,10,15,3,21,0.00,0,,267
2012-10-21,74,61,48,51,45,39,89,61,33,30.17,30.10,29.98,10,10,10,9,1,18,0.00,0,,48
2012-10-22,79,63,47,52,48,45,93,70,30,30.26,30.19,30.14,10,10,10,6,0,8,0.00,0,,50
2012-10-23,79,64,48,53,49,45,96,70,30,30.24,30.17,30.12,10,10,8,7,1,14,0.00,0,,210
2012-10-24,82,67,52,59,54,50,96,75,36,30.22,30.16,30.09,10,10,7,7,0,10,0.00,1,,190
2012-10-25,84,71,57,63,59,56,93,74,43,30.14,30.09,30.05,10,10,8,10,2,14,0.00,1,,71
2012-10-26,79,70,60,62,59,53,100,73,43,30.06,29.99,29.88,10,10,6,13,4,21,0.00,0,,48
2012-10-27,74,70,66,61,58,51,81,69,53,29.86,29.75,29.66,10,10,10,15,6,24,0.00,4,,6
2012-10-28,76,66,56,52,48,39,69,53,38,29.70,29.66,29.60,10,10,10,13,6,23,0.00,3,,336
2012-10-29,64,57,49,38,32,28,61,44,30,29.70,29.65,29.57,10,10,10,22,11,30,0.00,3,,309
2012-10-30,59,54,49,31,29,27,50,40,30,29.72,29.60,29.53,10,9,1,20,13,29,0.00,6,,275
2012-10-31,67,54,41,30,25,16,53,36,15,29.84,29.77,29.72,10,10,10,20,6,26,0.00,0,,267